When you browse on this site, cookies collect data to enhance your experience and personalize the content and advertising you see.
Visit our Privacy Policy to learn more. By continuing to use the site, you agree to this use of cookies and data.
  • In Schweiz
  • Länderverzeichnis
  • Für 7 Tage
  • Wassertemperatur
  • Wetterkarte
  • Widgets
  • user-avatar
    Anmelden

    Stündliche Wetter Zürich

    Heute, 20 Februar, Donnerstag

    Zeit Temperatur Niederschläge Wind Luftdruck Luftfeuchtigkeit
    00:00 +3°C° 0 mm 1 m/S 726 mmHg 87%
    01:00 +3°C° 0 mm 1 m/S 726 mmHg 87%
    02:00 +3°C° 0 mm 1 m/S 726 mmHg 87%
    03:00 +2°C° 0 mm 1 m/S 725 mmHg 87%
    04:00 +2°C° 0 mm 1 m/S 725 mmHg 87%
    05:00 +2°C° 0 mm 1 m/S 724 mmHg 85%
    06:00 +2°C° 0 mm 1 m/S 724 mmHg 83%
    07:00 +2°C° 0 mm 1 m/S 724 mmHg 81%
    08:00 +3°C° 0 mm 1 m/S 724 mmHg 76%
    09:00 +4°C° 0 mm 0 m/S 724 mmHg 72%
    10:00 +5°C° 0 mm 0 m/S 724 mmHg 68%
    11:00 +7°C° 0 mm 1 m/S 723 mmHg 65%
    12:00 +8°C° 0 mm 1 m/S 723 mmHg 63%
    13:00 +10°C° 0 mm 1 m/S 723 mmHg 60%
    14:00 +10°C° 0 mm 1 m/S 722 mmHg 61%
    15:00 +9°C° 0 mm 2 m/S 722 mmHg 62%
    16:00 +9°C° 0 mm 2 m/S 721 mmHg 63%
    17:00 +8°C° 0 mm 2 m/S 722 mmHg 69%
    18:00 +6°C° 0 mm 2 m/S 722 mmHg 75%
    19:00 +5°C° 0 mm 2 m/S 722 mmHg 81%
    20:00 +4°C° 0 mm 2 m/S 722 mmHg 82%
    21:00 +4°C° 0 mm 2 m/S 722 mmHg 83%
    22:00 +4°C° 0 mm 2 m/S 723 mmHg 84%
    23:00 +4°C° 0.2 mm 3 m/S 723 mmHg 83%

    Morgen, 21 Februar, Freitag

    Zeit Temperatur Niederschläge Wind Luftdruck Luftfeuchtigkeit
    00:00 +4°C° 0.2 mm 3 m/S 724 mmHg 83%
    01:00 +5°C° 0.2 mm 4 m/S 725 mmHg 83%
    02:00 +4°C° 0.4 mm 4 m/S 725 mmHg 86%
    03:00 +4°C° 0.4 mm 3 m/S 725 mmHg 88%
    04:00 +4°C° 0.4 mm 3 m/S 726 mmHg 91%
    05:00 +4°C° 0.3 mm 2 m/S 726 mmHg 91%
    06:00 +3°C° 0.3 mm 2 m/S 727 mmHg 91%
    07:00 +3°C° 0.3 mm 1 m/S 727 mmHg 91%
    14:00 +7°C° 0 mm 1 m/S 728 mmHg 65%
    15:00 +7°C° 0 mm 1 m/S 728 mmHg 65%
    16:00 +7°C° 0 mm 1 m/S 728 mmHg 66%
    17:00 +6°C° 0 mm 1 m/S 728 mmHg 70%
    18:00 +4°C° 0 mm 0 m/S 728 mmHg 75%
    19:00 +2°C° 0 mm 0 m/S 728 mmHg 80%
    20:00 +2°C° 0 mm 0 m/S 728 mmHg 80%
    21:00 +2°C° 0 mm 0 m/S 728 mmHg 80%
    22:00 +2°C° 0 mm 0 m/S 729 mmHg 80%
    23:00 +2°C° 0 mm 0 m/S 729 mmHg 81%

    übermorgen, 22 Februar, Samstag

    Zeit Temperatur Niederschläge Wind Luftdruck Luftfeuchtigkeit
    00:00 +1°C° 0 mm 0 m/S 729 mmHg 82%
    01:00 +2°C° 0 mm 1 m/S 729 mmHg 82%
    02:00 +1°C° 0 mm 0 m/S 728 mmHg 82%
    03:00 +1°C° 0 mm 0 m/S 728 mmHg 82%
    04:00 +1°C° 0 mm 0 m/S 728 mmHg 81%
    05:00 +1°C° 0 mm 0 m/S 728 mmHg 80%
    06:00 +1°C° 0 mm 0 m/S 728 mmHg 79%
    07:00 +1°C° 0 mm 0 m/S 728 mmHg 78%
    08:00 +4°C° 0 mm 1 m/S 728 mmHg 74%
    09:00 +5°C° 0 mm 1 m/S 728 mmHg 70%
    10:00 +7°C° 0 mm 1 m/S 728 mmHg 66%
    11:00 +8°C° 0 mm 1 m/S 728 mmHg 61%
    12:00 +10°C° 0 mm 1 m/S 728 mmHg 56%
    13:00 +12°C° 0 mm 2 m/S 728 mmHg 51%
    14:00 +12°C° 0 mm 2 m/S 728 mmHg 53%
    15:00 +12°C° 0 mm 2 m/S 727 mmHg 55%
    16:00 +12°C° 0 mm 2 m/S 727 mmHg 57%
    17:00 +10°C° 0 mm 2 m/S 727 mmHg 62%
    18:00 +8°C° 0 mm 2 m/S 728 mmHg 68%
    19:00 +7°C° 0 mm 1 m/S 728 mmHg 73%
    20:00 +7°C° 0 mm 1 m/S 728 mmHg 75%
    21:00 +6°C° 0 mm 1 m/S 728 mmHg 76%
    22:00 +6°C° 0 mm 1 m/S 729 mmHg 77%
    23:00 +6°C° 0 mm 1 m/S 728 mmHg 77%

    23 Februar, Sonntag

    Zeit Temperatur Niederschläge Wind Luftdruck Luftfeuchtigkeit
    00:00 +6°C° 0 mm 1 m/S 728 mmHg 77%
    01:00 +4°C° 0 mm 2 m/S 728 mmHg 76%
    02:00 +4°C° 0 mm 2 m/S 728 mmHg 75%
    03:00 +5°C° 0 mm 1 m/S 728 mmHg 74%
    04:00 +5°C° 0 mm 1 m/S 728 mmHg 72%
    05:00 +5°C° 0 mm 1 m/S 727 mmHg 71%
    06:00 +6°C° 0 mm 1 m/S 727 mmHg 69%
    07:00 +6°C° 0 mm 1 m/S 727 mmHg 68%
    08:00 +7°C° 0 mm 1 m/S 727 mmHg 66%
    09:00 +8°C° 0 mm 1 m/S 727 mmHg 64%
    10:00 +9°C° 0 mm 1 m/S 727 mmHg 63%
    11:00 +10°C° 0 mm 2 m/S 727 mmHg 58%
    12:00 +11°C° 0 mm 3 m/S 726 mmHg 54%
    13:00 +13°C° 0 mm 4 m/S 726 mmHg 49%
    14:00 +13°C° 0 mm 4 m/S 725 mmHg 49%
    15:00 +13°C° 0 mm 4 m/S 725 mmHg 49%
    16:00 +14°C° 0 mm 4 m/S 724 mmHg 49%
    17:00 +13°C° 0 mm 4 m/S 725 mmHg 51%
    18:00 +11°C° 0 mm 4 m/S 725 mmHg 54%
    19:00 +10°C° 0 mm 4 m/S 725 mmHg 56%
    20:00 +10°C° 0 mm 4 m/S 725 mmHg 57%
    21:00 +10°C° 0 mm 4 m/S 725 mmHg 58%
    22:00 +10°C° 0 mm 4 m/S 725 mmHg 60%
    23:00 +10°C° 0.3 mm 4 m/S 726 mmHg 65%

    24 Februar, Montag

    Zeit Temperatur Niederschläge Wind Luftdruck Luftfeuchtigkeit
    00:00 +10°C° 0.3 mm 4 m/S 726 mmHg 71%
    01:00 +8°C° 0.3 mm 4 m/S 726 mmHg 77%
    02:00 +9°C° 0.2 mm 3 m/S 727 mmHg 80%
    03:00 +9°C° 0.2 mm 3 m/S 727 mmHg 83%
    04:00 +9°C° 0.2 mm 2 m/S 728 mmHg 86%
    05:00 +8°C° 0.1 mm 2 m/S 728 mmHg 87%
    06:00 +9°C° 0.1 mm 1 m/S 728 mmHg 89%
    07:00 +8°C° 0.1 mm 1 m/S 728 mmHg 90%
    08:00 +8°C° 0 mm 1 m/S 728 mmHg 88%
    09:00 +8°C° 0 mm 1 m/S 728 mmHg 86%
    10:00 +8°C° 0 mm 1 m/S 728 mmHg 83%
    11:00 +9°C° 0 mm 1 m/S 728 mmHg 81%
    12:00 +9°C° 0 mm 0 m/S 727 mmHg 79%
    13:00 +9°C° 0 mm 0 m/S 727 mmHg 76%
    14:00 +10°C° 0 mm 0 m/S 727 mmHg 76%
    15:00 +10°C° 0 mm 0 m/S 726 mmHg 75%
    16:00 +12°C° 0 mm 1 m/S 726 mmHg 74%
    17:00 +9°C° 0 mm 0 m/S 725 mmHg 80%
    18:00 +8°C° 0 mm 0 m/S 725 mmHg 85%
    19:00 +7°C° 0 mm 0 m/S 725 mmHg 90%
    20:00 +7°C° 0 mm 0 m/S 725 mmHg 90%
    21:00 +6°C° 0 mm 0 m/S 724 mmHg 89%
    22:00 +6°C° 0 mm 0 m/S 724 mmHg 89%
    23:00 +6°C° 0 mm 0 m/S 724 mmHg 89%

    25 Februar, Dienstag

    Zeit Temperatur Niederschläge Wind Luftdruck Luftfeuchtigkeit
    00:00 +7°C° 0 mm 1 m/S 723 mmHg 89%
    01:00 +6°C° 0 mm 1 m/S 723 mmHg 89%
    02:00 +6°C° 0 mm 1 m/S 722 mmHg 88%
    03:00 +6°C° 0 mm 1 m/S 722 mmHg 88%
    04:00 +6°C° 0 mm 1 m/S 722 mmHg 88%
    05:00 +6°C° 0 mm 1 m/S 721 mmHg 87%
    06:00 +6°C° 0 mm 1 m/S 721 mmHg 87%
    07:00 +6°C° 0 mm 1 m/S 721 mmHg 86%
    08:00 +7°C° 0 mm 1 m/S 721 mmHg 82%
    09:00 +9°C° 0 mm 1 m/S 721 mmHg 78%
    10:00 +10°C° 0 mm 2 m/S 721 mmHg 74%
    11:00 +12°C° 0 mm 2 m/S 720 mmHg 71%
    12:00 +12°C° 0 mm 3 m/S 720 mmHg 67%
    13:00 +14°C° 0 mm 3 m/S 719 mmHg 64%
    14:00 +14°C° 0 mm 3 m/S 719 mmHg 64%
    15:00 +14°C° 0 mm 3 m/S 718 mmHg 65%
    16:00 +14°C° 0 mm 3 m/S 718 mmHg 65%
    17:00 +13°C° 0 mm 2 m/S 718 mmHg 70%
    18:00 +10°C° 0 mm 2 m/S 718 mmHg 76%
    19:00 +9°C° 0 mm 2 m/S 717 mmHg 81%
    20:00 +9°C° 0 mm 2 m/S 717 mmHg 82%
    21:00 +9°C° 0 mm 1 m/S 717 mmHg 83%
    22:00 +9°C° 0 mm 1 m/S 717 mmHg 85%
    23:00 +9°C° 0.1 mm 1 m/S 717 mmHg 85%
    Mehr zeigen